User: anonymous
Location: Albany
(35.0000°S, 118.0000°E)
Time: 17:04:03
(UTC-04:00)
Language:

Cosmos 1346 Rocket - Orbit

View from above orbital plane
View from above orbital plane
View from above satellite
View from above satellite

Ground track
Ground track

The orbit data is extracted from the following two-line orbital elements,

1 13121U 82027B   14243.43887232  .00002376  00000-0  16344-3 0  4745
2 13121 081.1674 210.0001 0027269 298.8876 060.9611 15.05266440763210
Epoch (UTC): 31 August 2014 10:31:58
Eccentricity: 0.0027269
inclination: 81.1674°
perigee height: 532 km
apogee height: 569 km
right ascension of ascending node: 210.0001°
argument of perigee: 298.8876°
revolutions per day: 15.05266440
mean anomaly at epoch: 60.9611°
orbit number at epoch: 76321

The dashed part of the orbit path shows where the satellite is in the earth's shadow,  

DLR